Location: Monteux
(44.0348°N, 4.9972°E)
Time: 17:14:09
(UTC+00:00)

Cosmos 1151 Rocket - Pass Details

Date: 30 November 2020
Orbit: 593 x 615 km, 82.5° (Epoch: 17 January)

Event Time Altitude Azimuth Distance (km) Brightness Sun altitude
Rises 16:52:38 0° 175° (S) 2,833 6.7 -8.8°
Reaches altitude 10° 16:54:52 10° 171° (S) 1,932 5.8 -9.2°
Maximum altitude 16:59:02 53° 94° (E) 734 3.1 -9.9°
Drops below altitude 10° 17:03:12 10° 18° (NNE) 1,939 5.2 -10.6°
Sets 17:05:26 0° 14° (NNE) 2,844 6.1 -10.9°
